Time,TemperatureF,DewpointF,PressureIn,WindDirection,WindDirectionDegrees,WindSpeedMPH,WindSpeedGustMPH,Humidity,HourlyPrecipIn,Conditions,Clouds,dailyrainin,SoftwareType,DateUTC
2013-03-14 00:12:00,27.9,23.0,29.80,NNW,338,6.0,16.0,81,0.00,,,0.00,weatherlink.com 1.10,2013-03-14 04:12:00,
2013-03-14 00:27:00,26.7,21.0,29.82,NW,309,5.0,16.0,80,0.00,,,0.00,weatherlink.com 1.10,2013-03-14 04:27:00,
2013-03-14 00:42:00,26.9,20.0,29.81,WNW,284,1.0,14.0,74,0.00,,,0.00,weatherlink.com 1.10,2013-03-14 04:42:00,
2013-03-14 00:58:00,26.8,18.0,29.80,SW,226,1.0,10.0,70,0.00,,,0.00,weatherlink.com 1.10,2013-03-14 04:58:00,
2013-03-14 01:13:00,26.6,18.0,29.80,South,184,2.0,13.0,69,0.00,,,0.00,weatherlink.com 1.10,2013-03-14 05:13:00,
2013-03-14 01:28:00,26.4,18.0,29.80,West,277,3.0,8.0,71,0.00,,,0.00,weatherlink.com 1.10,2013-03-14 05:28:00,
2013-03-14 01:43:00,26.2,17.0,29.80,NNW,338,3.0,10.0,67,0.00,,,0.00,weatherlink.com 1.10,2013-03-14 05:43:00,
2013-03-14 01:58:00,25.8,15.0,29.81,NW,311,7.0,15.0,63,0.00,,,0.00,weatherlink.com 1.10,2013-03-14 05:58:00,
2013-03-14 02:13:00,25.5,13.0,29.81,WNW,301,3.0,17.0,59,0.00,,,0.00,weatherlink.com 1.10,2013-03-14 06:13:00,
2013-03-14 02:28:00,25.1,13.0,29.81,North,11,4.0,15.0,61,0.00,,,0.00,weatherlink.com 1.10,2013-03-14 06:28:00,
2013-03-14 02:43:00,24.8,13.0,29.81,North,5,15.0,16.0,61,0.00,,,0.00,weatherlink.com 1.10,2013-03-14 06:43:00,
2013-03-14 02:58:00,24.3,12.0,29.81,WNW,291,5.0,16.0,59,0.00,,,0.00,weatherlink.com 1.10,2013-03-14 06:58:00,
2013-03-14 03:13:00,23.5,12.0,29.80,NW,323,2.0,23.0,62,0.00,,,0.00,weatherlink.com 1.10,2013-03-14 07:13:00,
2013-03-14 03:28:00,23.3,12.0,29.80,WNW,284,8.0,14.0,63,0.00,,,0.00,weatherlink.com 1.10,2013-03-14 07:28:00,
2013-03-14 03:43:00,23.2,13.0,29.79,North,360,10.0,11.0,64,0.00,,,0.00,weatherlink.com 1.10,2013-03-14 07:43:00,
2013-03-14 03:58:00,23.1,12.0,29.79,WNW,284,5.0,11.0,63,0.00,,,0.00,weatherlink.com 1.10,2013-03-14 07:58:00,
2013-03-14 04:13:00,22.9,12.0,29.79,NNW,347,8.0,17.0,63,0.00,,,0.00,weatherlink.com 1.10,2013-03-14 08:13:00,
2013-03-14 04:28:00,22.4,12.0,29.79,North,350,5.0,16.0,65,0.00,,,0.00,weatherlink.com 1.10,2013-03-14 08:28:00,
2013-03-14 04:43:00,22.1,12.0,29.79,WNW,291,3.0,16.0,65,0.00,,,0.00,weatherlink.com 1.10,2013-03-14 08:43:00,
2013-03-14 04:58:00,21.9,12.0,29.78,WNW,303,3.0,10.0,66,0.00,,,0.00,weatherlink.com 1.10,2013-03-14 08:58:00,
2013-03-14 05:13:00,21.8,12.0,29.78,West,259,3.0,10.0,67,0.00,,,0.00,weatherlink.com 1.10,2013-03-14 09:13:00,
2013-03-14 05:28:00,21.8,13.0,29.78,NNW,338,4.0,8.0,68,0.00,,,0.00,weatherlink.com 1.10,2013-03-14 09:28:00,
2013-03-14 05:43:00,21.8,14.0,29.78,NNW,347,6.0,11.0,71,0.00,,,0.00,weatherlink.com 1.10,2013-03-14 09:43:00,
2013-03-14 05:58:00,21.3,15.0,29.80,NNE,22,4.0,21.0,78,0.00,,,0.00,weatherlink.com 1.10,2013-03-14 09:58:00,
2013-03-14 06:13:00,20.0,11.0,29.81,West,264,12.0,20.0,69,0.00,,,0.00,weatherlink.com 1.10,2013-03-14 10:13:00,
2013-03-14 06:28:00,19.9,11.0,29.81,NW,311,11.0,14.0,69,0.00,,,0.00,weatherlink.com 1.10,2013-03-14 10:28:00,
2013-03-14 06:43:00,19.7,9.0,29.81,NW,315,9.0,11.0,64,0.00,,,0.00,weatherlink.com 1.10,2013-03-14 10:43:00,
2013-03-14 06:58:00,19.5,8.0,29.81,West,280,9.0,13.0,62,0.00,,,0.00,weatherlink.com 1.10,2013-03-14 10:58:00,
2013-03-14 07:13:00,19.3,9.0,29.82,WNW,300,6.0,15.0,63,0.00,,,0.00,weatherlink.com 1.10,2013-03-14 11:13:00,
2013-03-14 07:29:00,18.7,8.0,29.82,NE,42,3.0,16.0,63,0.00,,,0.00,weatherlink.com 1.10,2013-03-14 11:29:00,
2013-03-14 07:44:00,18.3,8.0,29.82,NE,35,2.0,17.0,64,0.00,,,0.00,weatherlink.com 1.10,2013-03-14 11:44:00,
2013-03-14 07:59:00,18.3,9.0,29.83,NNW,348,10.0,18.0,67,0.00,,,0.00,weatherlink.com 1.10,2013-03-14 11:59:00,
2013-03-14 08:14:00,17.7,9.0,29.84,WNW,299,4.0,19.0,69,0.00,,,0.00,weatherlink.com 1.10,2013-03-14 12:14:00,
2013-03-14 08:29:00,17.5,9.0,29.84,NNW,331,8.0,16.0,68,0.00,,,0.00,weatherlink.com 1.10,2013-03-14 12:29:00,
2013-03-14 08:44:00,17.5,10.0,29.84,NNW,331,3.0,19.0,71,0.00,,,0.00,weatherlink.com 1.10,2013-03-14 12:44:00,
2013-03-14 08:59:00,17.2,10.0,29.85,NE,51,14.0,20.0,72,0.00,,,0.00,weatherlink.com 1.10,2013-03-14 12:59:00,
2013-03-14 09:14:00,18.0,9.0,29.84,WNW,294,8.0,16.0,68,0.00,,,0.00,weatherlink.com 1.10,2013-03-14 13:14:00,
2013-03-14 09:29:00,18.9,8.0,29.84,WNW,294,2.0,14.0,63,0.00,,,0.00,weatherlink.com 1.10,2013-03-14 13:29:00,
2013-03-14 09:44:00,18.6,8.0,29.84,West,271,3.0,22.0,64,0.00,,,0.00,weatherlink.com 1.10,2013-03-14 13:44:00,
2013-03-14 09:59:00,19.1,9.0,29.84,WSW,248,5.0,17.0,65,0.00,,,0.00,weatherlink.com 1.10,2013-03-14 13:59:00,
2013-03-14 10:14:00,19.2,8.0,29.84,WNW,300,7.0,20.0,63,0.00,,,0.00,weatherlink.com 1.10,2013-03-14 14:14:00,
2013-03-14 10:29:00,19.5,8.0,29.84,North,360,5.0,21.0,62,0.00,,,0.00,weatherlink.com 1.10,2013-03-14 14:29:00,
2013-03-14 10:44:00,19.5,8.0,29.84,NW,317,11.0,22.0,60,0.00,,,0.00,weatherlink.com 1.10,2013-03-14 14:44:00,
2013-03-14 10:59:00,19.2,8.0,29.84,SW,228,15.0,25.0,61,0.00,,,0.00,weatherlink.com 1.10,2013-03-14 14:59:00,
2013-03-14 11:14:00,19.6,9.0,29.84,East,86,5.0,22.0,63,0.00,,,0.00,weatherlink.com 1.10,2013-03-14 15:14:00,
2013-03-14 11:29:00,19.9,9.0,29.84,NNW,342,3.0,23.0,62,0.00,,,0.00,weatherlink.com 1.10,2013-03-14 15:29:00,
2013-03-14 11:44:00,20.2,9.0,29.84,West,269,10.0,17.0,62,0.00,,,0.00,weatherlink.com 1.10,2013-03-14 15:44:00,
2013-03-14 11:59:00,19.6,7.0,29.84,WNW,292,3.0,23.0,59,0.00,,,0.00,weatherlink.com 1.10,2013-03-14 15:59:00,
2013-03-14 12:14:00,19.8,8.0,29.84,WSW,249,5.0,23.0,61,0.00,,,0.00,weatherlink.com 1.10,2013-03-14 16:14:00,
2013-03-14 12:29:00,19.6,10.0,29.84,NW,318,6.0,17.0,67,0.00,,,0.00,weatherlink.com 1.10,2013-03-14 16:29:00,
2013-03-14 12:44:00,19.6,10.0,29.84,West,269,4.0,23.0,65,0.00,,,0.00,weatherlink.com 1.10,2013-03-14 16:44:00,
2013-03-14 12:59:00,20.5,9.0,29.83,North,355,14.0,16.0,62,0.00,,,0.00,weatherlink.com 1.10,2013-03-14 16:59:00,
2013-03-14 13:14:00,21.5,10.0,29.83,NNW,329,2.0,21.0,61,0.00,,,0.00,weatherlink.com 1.10,2013-03-14 17:14:00,
2013-03-14 13:29:00,21.4,8.0,29.83,NNW,344,8.0,25.0,57,0.00,,,0.00,weatherlink.com 1.10,2013-03-14 17:29:00,
2013-03-14 13:44:00,22.3,10.0,29.82,North,350,13.0,22.0,59,0.00,,,0.00,weatherlink.com 1.10,2013-03-14 17:44:00,
2013-03-14 13:59:00,22.7,10.0,29.82,NNW,341,3.0,19.0,58,0.00,,,0.00,weatherlink.com 1.10,2013-03-14 17:59:00,
2013-03-14 14:14:00,22.8,11.0,29.82,WNW,298,5.0,21.0,60,0.00,,,0.00,weatherlink.com 1.10,2013-03-14 18:14:00,
2013-03-14 14:29:00,23.7,11.0,29.80,WNW,287,8.0,20.0,58,0.00,,,0.00,weatherlink.com 1.10,2013-03-14 18:29:00,
2013-03-14 14:44:00,23.9,11.0,29.81,West,271,6.0,22.0,57,0.00,,,0.00,weatherlink.com 1.10,2013-03-14 18:44:00,
2013-03-14 14:59:00,24.4,11.0,29.80,West,266,7.0,27.0,58,0.00,,,0.00,weatherlink.com 1.10,2013-03-14 18:59:00,
2013-03-14 15:14:00,24.0,11.0,29.80,West,265,13.0,21.0,58,0.00,,,0.00,weatherlink.com 1.10,2013-03-14 19:14:00,
2013-03-14 15:29:00,24.2,12.0,29.80,WNW,298,9.0,27.0,60,0.00,,,0.00,weatherlink.com 1.10,2013-03-14 19:29:00,
2013-03-14 15:44:00,24.5,12.0,29.80,WNW,282,3.0,16.0,60,0.00,,,0.00,weatherlink.com 1.10,2013-03-14 19:44:00,
2013-03-14 15:59:00,24.5,13.0,29.80,North,355,15.0,21.0,62,0.00,,,0.00,weatherlink.com 1.10,2013-03-14 19:59:00,
2013-03-14 16:14:00,24.4,14.0,29.80,NW,304,13.0,22.0,65,0.00,,,0.00,weatherlink.com 1.10,2013-03-14 20:14:00,
2013-03-14 16:29:00,24.4,15.0,29.80,NW,313,4.0,17.0,68,0.00,,,0.00,weatherlink.com 1.10,2013-03-14 20:29:00,
2013-03-14 16:59:00,25.2,15.0,29.81,NNW,345,8.0,24.0,65,0.00,,,0.00,weatherlink.com 1.10,2013-03-14 20:59:00,
2013-03-14 17:14:00,24.5,16.0,29.81,NW,324,4.0,19.0,69,0.00,,,0.00,weatherlink.com 1.10,2013-03-14 21:14:00,
2013-03-14 17:29:00,23.8,16.0,29.82,West,279,8.0,17.0,72,0.00,,,0.00,weatherlink.com 1.10,2013-03-14 21:29:00,
2013-03-14 17:44:00,24.5,14.0,29.82,WNW,302,18.0,18.0,65,0.00,,,0.00,weatherlink.com 1.10,2013-03-14 21:44:00,
2013-03-14 17:59:00,24.0,15.0,29.82,North,349,4.0,19.0,69,0.00,,,0.00,weatherlink.com 1.10,2013-03-14 21:59:00,
2013-03-14 18:14:00,24.0,14.0,29.82,NNE,27,6.0,16.0,66,0.00,,,0.00,weatherlink.com 1.10,2013-03-14 22:14:00,
2013-03-14 18:29:00,23.9,13.0,29.84,NNW,346,11.0,19.0,64,0.00,,,0.00,weatherlink.com 1.10,2013-03-14 22:29:00,
2013-03-14 18:44:00,23.7,13.0,29.84,NNE,12,4.0,16.0,65,0.00,,,0.00,weatherlink.com 1.10,2013-03-14 22:44:00,
2013-03-14 18:59:00,23.6,12.0,29.85,WNW,293,8.0,23.0,62,0.00,,,0.00,weatherlink.com 1.10,2013-03-14 22:59:00,
2013-03-14 19:14:00,23.8,11.0,29.85,WNW,294,7.0,21.0,59,0.00,,,0.00,weatherlink.com 1.10,2013-03-14 23:14:00,
2013-03-14 19:29:00,23.7,11.0,29.86,NNW,328,11.0,20.0,58,0.00,,,0.00,weatherlink.com 1.10,2013-03-14 23:29:00,
2013-03-14 19:44:00,23.8,10.0,29.85,WNW,302,6.0,21.0,56,0.00,,,0.00,weatherlink.com 1.10,2013-03-14 23:44:00,
2013-03-14 19:59:00,23.8,10.0,29.86,North,5,17.0,24.0,56,0.00,,,0.00,weatherlink.com 1.10,2013-03-14 23:59:00,
2013-03-14 20:14:00,23.8,10.0,29.86,NW,312,2.0,16.0,55,0.00,,,0.00,weatherlink.com 1.10,2013-03-15 00:14:00,
2013-03-14 20:29:00,23.7,10.0,29.86,NW,322,5.0,18.0,56,0.00,,,0.00,weatherlink.com 1.10,2013-03-15 00:29:00,
2013-03-14 20:44:00,23.5,10.0,29.86,North,5,10.0,18.0,57,0.00,,,0.00,weatherlink.com 1.10,2013-03-15 00:44:00,
2013-03-14 20:59:00,23.6,10.0,29.86,WNW,290,9.0,27.0,56,0.00,,,0.00,weatherlink.com 1.10,2013-03-15 00:59:00,
2013-03-14 21:14:00,23.5,10.0,29.86,North,355,10.0,22.0,57,0.00,,,0.00,weatherlink.com 1.10,2013-03-15 01:14:00,
2013-03-14 21:30:00,23.6,10.0,29.86,NNE,27,5.0,19.0,56,0.00,,,0.00,weatherlink.com 1.10,2013-03-15 01:30:00,
2013-03-14 21:45:00,23.6,10.0,29.86,West,277,5.0,17.0,57,0.00,,,0.00,weatherlink.com 1.10,2013-03-15 01:45:00,
2013-03-14 22:00:00,23.8,10.0,29.87,NNW,338,8.0,20.0,55,0.00,,,0.00,weatherlink.com 1.10,2013-03-15 02:00:00,
2013-03-14 22:15:00,23.8,10.0,29.88,NW,310,5.0,21.0,55,0.00,,,0.00,weatherlink.com 1.10,2013-03-15 02:15:00,
2013-03-14 22:30:00,23.7,10.0,29.88,NNE,22,4.0,16.0,55,0.00,,,0.00,weatherlink.com 1.10,2013-03-15 02:30:00,
2013-03-14 22:45:00,23.7,10.0,29.87,NW,325,5.0,22.0,55,0.00,,,0.00,weatherlink.com 1.10,2013-03-15 02:45:00,
2013-03-14 23:00:00,23.6,9.0,29.88,NNE,28,3.0,20.0,55,0.00,,,0.00,weatherlink.com 1.10,2013-03-15 03:00:00,
2013-03-14 23:15:00,23.6,9.0,29.88,West,269,4.0,21.0,53,0.00,,,0.00,weatherlink.com 1.10,2013-03-15 03:15:00,
2013-03-14 23:30:00,23.4,8.0,29.88,NNW,328,7.0,23.0,53,0.00,,,0.00,weatherlink.com 1.10,2013-03-15 03:30:00,
2013-03-14 23:45:00,23.3,8.0,29.89,WNW,291,14.0,17.0,53,0.00,,,0.00,weatherlink.com 1.10,2013-03-15 03:45:00,